• In Uzbekistan
  • List of Countries
  • For 7 days
  • Water Temperature
  • Satellite Maps
  • Weather Map
  • Weather Widgets
  • user-avatar
    Login

    Hourly Weather Olpiny

    Today, 22 July, Sunday

    Time Temperature Precipitation Wind Pressure Humidity
    00:00 +18°C° 0 mm 1 mps 734 mmHg 78%
    01:00 +18°C° 0 mm 1 mps 733 mmHg 83%
    02:00 +18°C° 0 mm 1 mps 733 mmHg 85%
    03:00 +18°C° 0 mm 1 mps 733 mmHg 86%
    04:00 +16°C° 0 mm 1 mps 733 mmHg 88%
    05:00 +19°C° 0 mm 1 mps 733 mmHg 83%
    06:00 +21°C° 0 mm 1 mps 734 mmHg 78%
    07:00 +23°C° 0 mm 1 mps 734 mmHg 73%
    08:00 +24°C° 0.3 mm 1 mps 733 mmHg 71%
    09:00 +25°C° 0.3 mm 1 mps 733 mmHg 69%
    10:00 +26°C° 0.3 mm 2 mps 733 mmHg 68%
    11:00 +27°C° 1.1 mm 2 mps 733 mmHg 67%
    12:00 +27°C° 1.1 mm 2 mps 733 mmHg 67%
    13:00 +28°C° 0 mm 2 mps 733 mmHg 61%
    14:00 +28°C° 0.9 mm 2 mps 733 mmHg 63%
    15:00 +27°C° 0.9 mm 2 mps 733 mmHg 64%
    16:00 +27°C° 0.9 mm 2 mps 733 mmHg 66%
    17:00 +26°C° 0.5 mm 2 mps 733 mmHg 70%
    18:00 +24°C° 0.5 mm 2 mps 733 mmHg 75%
    19:00 +23°C° 0.5 mm 1 mps 733 mmHg 79%
    20:00 +22°C° 0.3 mm 1 mps 733 mmHg 81%
    21:00 +21°C° 0.3 mm 1 mps 733 mmHg 82%
    22:00 +20°C° 0.3 mm 1 mps 733 mmHg 84%
    23:00 +20°C° 0 mm 1 mps 733 mmHg 85%

    Tomorrow, 23 July, Monday

    Time Temperature Precipitation Wind Pressure Humidity
    00:00 +19°C° 0 mm 1 mps 733 mmHg 86%
    01:00 +19°C° 0 mm 1 mps 733 mmHg 87%
    02:00 +19°C° 0 mm 1 mps 733 mmHg 89%
    03:00 +18°C° 0 mm 1 mps 733 mmHg 90%
    04:00 +18°C° 0 mm 1 mps 733 mmHg 91%
    05:00 +19°C° 0 mm 1 mps 733 mmHg 88%
    06:00 +21°C° 0 mm 1 mps 734 mmHg 85%
    07:00 +21°C° 0 mm 2 mps 734 mmHg 82%
    08:00 +23°C° 0.2 mm 2 mps 734 mmHg 76%
    09:00 +25°C° 0.2 mm 3 mps 734 mmHg 70%
    10:00 +26°C° 0.2 mm 4 mps 734 mmHg 64%
    11:00 +26°C° 0.4 mm 4 mps 734 mmHg 63%
    12:00 +27°C° 0.4 mm 4 mps 734 mmHg 62%
    13:00 +27°C° 0.4 mm 5 mps 733 mmHg 62%
    14:00 +27°C° 0.5 mm 4 mps 733 mmHg 64%
    15:00 +27°C° 0.5 mm 4 mps 733 mmHg 66%
    16:00 +26°C° 0.5 mm 4 mps 733 mmHg 68%
    17:00 +25°C° 0.4 mm 4 mps 733 mmHg 73%
    18:00 +24°C° 0.4 mm 3 mps 733 mmHg 78%
    19:00 +21°C° 0.4 mm 3 mps 733 mmHg 82%
    20:00 +21°C° 0.2 mm 3 mps 734 mmHg 85%
    21:00 +20°C° 0.2 mm 3 mps 734 mmHg 87%
    22:00 +19°C° 0.2 mm 3 mps 734 mmHg 90%
    23:00 +19°C° 0.3 mm 3 mps 734 mmHg 91%

    Day after tomorrow, 24 July, Tuesday

    Time Temperature Precipitation Wind Pressure Humidity
    00:00 +18°C° 0.3 mm 3 mps 734 mmHg 92%
    01:00 +18°C° 0.3 mm 3 mps 734 mmHg 94%
    02:00 +18°C° 0 mm 3 mps 734 mmHg 95%
    03:00 +18°C° 0 mm 3 mps 734 mmHg 95%
    04:00 +17°C° 0 mm 3 mps 734 mmHg 96%
    05:00 +18°C° 0.1 mm 3 mps 734 mmHg 93%
    06:00 +19°C° 0.1 mm 4 mps 734 mmHg 91%
    07:00 +20°C° 0.1 mm 4 mps 734 mmHg 88%
    08:00 +21°C° 0.1 mm 4 mps 734 mmHg 83%
    09:00 +22°C° 0.1 mm 5 mps 735 mmHg 78%
    10:00 +23°C° 0.1 mm 5 mps 735 mmHg 74%
    11:00 +25°C° 0.2 mm 5 mps 735 mmHg 69%
    12:00 +26°C° 0.2 mm 5 mps 734 mmHg 65%
    13:00 +27°C° 0.2 mm 5 mps 734 mmHg 61%
    14:00 +27°C° 0.1 mm 5 mps 734 mmHg 61%
    15:00 +27°C° 0.1 mm 5 mps 734 mmHg 62%
    16:00 +27°C° 0.1 mm 5 mps 734 mmHg 63%
    17:00 +26°C° 0.1 mm 4 mps 734 mmHg 68%
    18:00 +24°C° 0.1 mm 3 mps 734 mmHg 73%
    19:00 +22°C° 0.1 mm 3 mps 734 mmHg 78%
    20:00 +21°C° 0 mm 3 mps 734 mmHg 81%
    21:00 +20°C° 0 mm 2 mps 734 mmHg 83%
    22:00 +19°C° 0 mm 2 mps 734 mmHg 86%
    23:00 +18°C° 0 mm 2 mps 734 mmHg 88%

    25 July, Wednesday

    Time Temperature Precipitation Wind Pressure Humidity
    00:00 +18°C° 0 mm 2 mps 734 mmHg 90%
    01:00 +17°C° 0 mm 2 mps 734 mmHg 92%
    02:00 +17°C° 0 mm 2 mps 734 mmHg 93%
    03:00 +17°C° 0 mm 2 mps 734 mmHg 94%
    04:00 +17°C° 0 mm 2 mps 734 mmHg 95%
    05:00 +18°C° 0 mm 2 mps 734 mmHg 91%
    06:00 +19°C° 0 mm 2 mps 734 mmHg 87%
    07:00 +21°C° 0 mm 3 mps 734 mmHg 84%
    08:00 +22°C° 0 mm 3 mps 735 mmHg 78%
    09:00 +24°C° 0 mm 3 mps 735 mmHg 72%
    10:00 +26°C° 0 mm 4 mps 735 mmHg 66%
    11:00 +26°C° 0.1 mm 4 mps 734 mmHg 64%
    12:00 +27°C° 0.1 mm 4 mps 734 mmHg 62%
    13:00 +28°C° 0.1 mm 4 mps 734 mmHg 59%
    14:00 +28°C° 0.4 mm 4 mps 734 mmHg 61%
    15:00 +27°C° 0.4 mm 4 mps 734 mmHg 62%
    16:00 +27°C° 0.4 mm 4 mps 733 mmHg 64%
    17:00 +26°C° 0.4 mm 3 mps 733 mmHg 71%
    18:00 +24°C° 0.4 mm 3 mps 733 mmHg 79%
    19:00 +23°C° 0.4 mm 2 mps 733 mmHg 86%
    20:00 +21°C° 0 mm 2 mps 734 mmHg 89%
    21:00 +20°C° 0 mm 2 mps 734 mmHg 91%
    22:00 +20°C° 0 mm 1 mps 734 mmHg 94%
    23:00 +20°C° 0 mm 1 mps 734 mmHg 94%

    26 July, Thursday

    Time Temperature Precipitation Wind Pressure Humidity
    00:00 +20°C° 0 mm 1 mps 734 mmHg 95%
    01:00 +19°C° 0 mm 1 mps 734 mmHg 96%
    02:00 +19°C° 0 mm 1 mps 734 mmHg 96%
    03:00 +19°C° 0 mm 1 mps 734 mmHg 97%
    04:00 +19°C° 0 mm 1 mps 734 mmHg 97%
    05:00 +20°C° 0 mm 1 mps 734 mmHg 95%
    06:00 +21°C° 0 mm 1 mps 734 mmHg 93%
    07:00 +22°C° 0 mm 1 mps 735 mmHg 91%
    08:00 +23°C° 0.2 mm 1 mps 735 mmHg 87%
    09:00 +24°C° 0.2 mm 2 mps 735 mmHg 84%
    10:00 +25°C° 0.2 mm 2 mps 735 mmHg 81%
    11:00 +26°C° 0.2 mm 2 mps 734 mmHg 74%
    12:00 +27°C° 0.2 mm 2 mps 734 mmHg 67%
    13:00 +29°C° 0.2 mm 2 mps 734 mmHg 61%
    14:00 +28°C° 0.2 mm 2 mps 734 mmHg 63%
    15:00 +28°C° 0.2 mm 2 mps 734 mmHg 64%
    16:00 +28°C° 0.2 mm 2 mps 734 mmHg 66%
    17:00 +27°C° 0.4 mm 1 mps 734 mmHg 71%
    18:00 +26°C° 0.4 mm 1 mps 734 mmHg 77%
    19:00 +22°C° 0.4 mm 0 mps 734 mmHg 82%
    20:00 +21°C° 0.2 mm 0 mps 734 mmHg 85%
    21:00 +21°C° 0.2 mm 0 mps 734 mmHg 87%
    22:00 +20°C° 0.2 mm 0 mps 734 mmHg 89%
    23:00 +21°C° 0 mm 1 mps 734 mmHg 90%

    27 July, Friday

    Time Temperature Precipitation Wind Pressure Humidity
    00:00 +21°C° 0 mm 1 mps 734 mmHg 91%
    01:00 +21°C° 0 mm 1 mps 734 mmHg 93%
    02:00 +20°C° 0.1 mm 1 mps 734 mmHg 93%
    03:00 +20°C° 0.1 mm 1 mps 734 mmHg 94%
    04:00 +20°C° 0.1 mm 1 mps 734 mmHg 94%
    05:00 +21°C° 0 mm 1 mps 735 mmHg 91%
    06:00 +23°C° 0 mm 1 mps 735 mmHg 89%
    07:00 +24°C° 0 mm 1 mps 735 mmHg 86%
    08:00 +25°C° 0 mm 1 mps 735 mmHg 79%
    09:00 +27°C° 0 mm 1 mps 735 mmHg 72%
    10:00 +29°C° 0 mm 1 mps 735 mmHg 66%
    11:00 +29°C° 0.2 mm 1 mps 735 mmHg 63%
    12:00 +30°C° 0.2 mm 1 mps 734 mmHg 61%
    13:00 +30°C° 0.2 mm 1 mps 734 mmHg 59%
    14:00 +30°C° 0.5 mm 1 mps 734 mmHg 62%
    15:00 +30°C° 0.5 mm 1 mps 734 mmHg 64%
    16:00 +30°C° 0.5 mm 2 mps 734 mmHg 67%
    17:00 +28°C° 0.8 mm 1 mps 734 mmHg 73%
    18:00 +26°C° 0.8 mm 1 mps 734 mmHg 79%
    19:00 +25°C° 0.8 mm 1 mps 734 mmHg 85%
    20:00 +24°C° 0 mm 1 mps 734 mmHg 87%
    21:00 +23°C° 0 mm 1 mps 734 mmHg 89%
    22:00 +20°C° 0 mm 0 mps 734 mmHg 91%
    23:00 +20°C° 0 mm 0 mps 734 mmHg 91%
    Show more